WetterOnline ( https://www.wetteronline.de )

Wetter aktuell Neuhaus

Aktuelles Wetter: Boizenburg (46m)

6-stündlich | Neueste Meldungen
Ortszeit Temperatur Wetter
Mo, 06.02. 13:00 4.0° C leicht bewölkt
Mo, 06.02. 7:00 -1.7° C wolkig
Mo, 06.02. 1:00 0.2° C leicht bewölkt
So, 05.02. 19:00 0.8° C bedeckt
So, 05.02. 13:00 0.5° C bewölkt
So, 05.02. 7:00 -2.1° C bedeckt
So, 05.02. 1:00 -1.6° C leicht bewölkt
Sa, 04.02. 19:00 1.0° C bedeckt
Ortszeit Temperatur Wetter
Mo, 06.02. 14:00 4.3° C fast wolkenlos
Mo, 06.02. 13:50 4.3° C fast wolkenlos
Mo, 06.02. 13:40 4.1° C leicht bewölkt
Mo, 06.02. 13:30 3.8° C leicht bewölkt
Mo, 06.02. 13:20 3.8° C leicht bewölkt
Mo, 06.02. 13:10 4.1° C leicht bewölkt
Mo, 06.02. 13:00 4.0° C leicht bewölkt
Mo, 06.02. 12:30 2.9° C wolkig
Mo, 06.02. 12:00 2.5° C bewölkt
Mo, 06.02. 11:30 2.2° C bedeckt
Mo, 06.02. 11:00 2.2° C wolkig
Ortszeit Relative Feuchte Sichtweite
Mo, 06.02. 13:00 72% 45 km
Mo, 06.02. 7:00 94% 16 km
Mo, 06.02. 1:00 94% 6 km
So, 05.02. 19:00 81% 50 km
So, 05.02. 13:00 77% 60 km
So, 05.02. 7:00 84% 65 km
So, 05.02. 1:00 85% 55 km
Sa, 04.02. 19:00 77% >70 km
Ortszeit Relative Feuchte Sichtweite
Mo, 06.02. 14:00 72% 55 km
Mo, 06.02. 13:50 72% -
Mo, 06.02. 13:40 74% -
Mo, 06.02. 13:30 74% 60 km
Mo, 06.02. 13:20 74% -
Mo, 06.02. 13:10 72% -
Mo, 06.02. 13:00 72% 45 km
Mo, 06.02. 12:30 79% 50 km
Mo, 06.02. 12:00 81% 40 km
Mo, 06.02. 11:30 83% 35 km
Mo, 06.02. 11:00 82% 30 km
Ortszeit Niederschlagsmenge Niederschlagsart
Mo, 06.02. 13:00 0.0 l/m2 in 6 Std. -
Mo, 06.02. 7:00 0.1 l/m2 in 12 Std. -
Mo, 06.02. 1:00 0.1 l/m2 in 6 Std. Schnee, Regen
So, 05.02. 19:00 0.0 l/m2 in 12 Std. -
So, 05.02. 13:00 0.0 l/m2 in 6 Std. -
So, 05.02. 7:00 0.1 l/m2 in 12 Std. -
So, 05.02. 1:00 0.1 l/m2 in 6 Std. Niederschlag
Sa, 04.02. 19:00 0.0 l/m2 in 12 Std. -
Ortszeit Niederschlagsmenge Niederschlagsart
Mo, 06.02. 14:00 0.0 l/m2 in 1 Std. -
Mo, 06.02. 13:50 keine Meldung -
Mo, 06.02. 13:40 keine Meldung -
Mo, 06.02. 13:30 0.0 l/m2 in 30 Min -
Mo, 06.02. 13:20 keine Meldung -
Mo, 06.02. 13:10 keine Meldung -
Mo, 06.02. 13:00 0.0 l/m2 in 1 Std. -
Mo, 06.02. 12:30 0.0 l/m2 in 30 Min -
Mo, 06.02. 12:00 0.0 l/m2 in 1 Std. -
Mo, 06.02. 11:30 0.0 l/m2 in 30 Min -
Mo, 06.02. 11:00 0.0 l/m2 in 1 Std. -
Ortszeit Stärke Spitze Richtung
km/h Bft. km/h Grad Sektor
Mo, 06.02. 13:00 9 2 19 350° N
Mo, 06.02. 7:00 7 2 18 290° W
Mo, 06.02. 1:00 9 2 15 290° W
So, 05.02. 19:00 4 1 18 350° N
So, 05.02. 13:00 9 2 28 120° SO
So, 05.02. 7:00 11 2 29 120° SO
So, 05.02. 1:00 14 3 25 110° O
Sa, 04.02. 19:00 7 2 14 50° NO
Ortszeit Stärke Spitze Richtung
km/h Bft. km/h Grad Sektor
Mo, 06.02. 14:00 7 2 15 40° NO
Mo, 06.02. 13:50 7 2 - 40° NO
Mo, 06.02. 13:40 7 2 - 50° NO
Mo, 06.02. 13:30 9 2 15 50° NO
Mo, 06.02. 13:20 9 2 - 50° NO
Mo, 06.02. 13:10 9 2 - 40° NO
Mo, 06.02. 13:00 9 2 19 350° N
Mo, 06.02. 12:30 9 2 19 40° NO
Mo, 06.02. 12:00 13 3 19 50° NO
Mo, 06.02. 11:30 11 2 14 30° NO
Mo, 06.02. 11:00 4 1 11 10° N
Ortszeit Untergrenze Bedeckung Gattung
total tief tief mittel hoch
Mo, 06.02. 13:00 360 m 7/8 1/8 - - -
Mo, 06.02. 7:00 420 m 7/8 4/8 - - -
Mo, 06.02. 1:00 12000 m 3/8 0/8 - - -
So, 05.02. 19:00 1470 m 8/8 8/8 - - -
So, 05.02. 13:00 1800 m 8/8 7/8 - - -
So, 05.02. 7:00 3000 m 8/8 8/8 - - -
So, 05.02. 1:00 10500 m 4/8 0/8 - - -
Sa, 04.02. 19:00 4500 m 8/8 8/8 - - -
Ortszeit Bedeckungsgrad in Achtel und Wolkenuntergrenze
Mo, 06.02. 14:00 1(510m)
Mo, 06.02. 13:50 1(510m)
Mo, 06.02. 13:40 2
Mo, 06.02. 13:30 1(480m) 3(10500m)
Mo, 06.02. 13:20 1(480m) 3(10500m)
Mo, 06.02. 13:10 4
Mo, 06.02. 13:00 1(360m) 7(10500m)
Mo, 06.02. 12:30 5(360m)
Mo, 06.02. 12:00 7(330m)
Mo, 06.02. 11:30 8(330m)
Mo, 06.02. 11:00 4(300m) 6(4200m)
Ortszeit Luftdruck NN (hPa) Tendenz (hPa in 3 Std.)
Mo, 06.02. 13:00 1041 + 0,2
Mo, 06.02. 7:00 1040 + 0,3
Mo, 06.02. 1:00 1040 + 0,1
So, 05.02. 19:00 1039 + 1,9
So, 05.02. 13:00 1037 + 0,5
So, 05.02. 7:00 1036 - 1,3
So, 05.02. 1:00 1040 - 0,2
Sa, 04.02. 19:00 1040 + 0,6
Ortszeit Luftdruck NN (hPa) Tendenz (hPa in 3 Std.)
Mo, 06.02. 14:00 1041 - 0,2
Mo, 06.02. 13:50 1041 keine Meldung
Mo, 06.02. 13:40 1041 keine Meldung
Mo, 06.02. 13:30 1041 + 0,2
Mo, 06.02. 13:20 1041 keine Meldung
Mo, 06.02. 13:10 1041 keine Meldung
Mo, 06.02. 13:00 1041 + 0,2
Mo, 06.02. 12:30 1041 + 0,2
Mo, 06.02. 12:00 1041 + 0,3
Mo, 06.02. 11:30 1041 + 0,3
Mo, 06.02. 11:00 1041 + 0,7
Ortszeit Schneehöhe (cm)
Mo, 06.02. 13:00 0
Mo, 06.02. 7:00 0
Mo, 06.02. 1:00 0
So, 05.02. 19:00 0
So, 05.02. 13:00 0
So, 05.02. 7:00 0
So, 05.02. 1:00 0
Sa, 04.02. 19:00 0
Ortszeit Schneehöhe (cm)
Mo, 06.02. 14:00 0
Mo, 06.02. 13:50 0
Mo, 06.02. 13:40 0
Mo, 06.02. 13:30 0
Mo, 06.02. 13:20 0
Mo, 06.02. 13:10 0
Mo, 06.02. 13:00 0
Mo, 06.02. 12:30 0
Mo, 06.02. 12:00 0
Mo, 06.02. 11:30 0
Mo, 06.02. 11:00 0
Link zu dieser Seite / Seite empfehlen

Das Wetter in ...